Flag for Germany Weather past 2 weeks in Tuttlingen, Baden-Württemberg, Germany

Now
66 °F

Clear.


Feels Like: 66 °F
Forecast: 57 / 75 °F
Wind: 2 mph from Northwest

Location: Konstanz

Current Time: Aug 31, 2015 at 6:52:56 AM

Latest Report: Aug 31, 2015 at 5:00 AM


Visibility: 19 mi

Pressure: 30.02 "Hg (27.84 "Hg at 643m altitude)

Humidity: 85%

Dew point: 61 °F

Location of TuttlingenLocation

Historic Weather in Tuttlingen — Graph

°F

Tuttlingen temperature yesterday

Maximum temperature yesterday: 90 °F (at 5:00 PM)
Minimum temperature yesterday: 67 °F (at 7:00 AM)
Average temperature yesterday: 78 °F

Past Weeks' High & Low Weather Summary

 TemperatureHumidityPressure
High92 °F (Aug 29, 5:00 PM)97% (Aug 21, 6:00 AM)30.27 "Hg (Aug 21, 6:00 AM)
Low53 °F (Aug 26, 7:00 AM)29% (Aug 26, 3:00 PM)29.70 "Hg (Aug 24, 8:00 AM)
Average67 °F70%30.01 "Hg
* Reported Aug 16 5:00 AM — Aug 31 5:00 AM, Tuttlingen, Weather by CustomWeather, © 2015

Note: Actual official high and low records may vary slightly from our data, if they occured in-between our weather recording intervals... More about our weather records

Advertising

Tuttlingen weather history for previous 24 hours

 ConditionsComfort  
Time TempWeatherWind HumidityBarometerVisibility
5:00 AM
Mon, Aug 31
66 °FClear.2 mph85%30.02 "Hg19 mi
4:00 AM67 °FClear.2 mph82%30.01 "Hg22 mi
3:00 AM66 °FClear.1 mph80%30.00 "Hg28 mi
2:00 AM68 °FClear.2 mph81%30.01 "Hg25 mi
1:00 AM69 °FClear.1 mph80%30.03 "Hg25 mi
11:00 PM
Sun, Aug 30
73 °FClear.1 mph65%30.02 "Hg31 mi
10:00 PM76 °FClear.2 mph59%30.01 "Hg43 mi
9:00 PM78 °FClear.1 mph57%30.00 "Hg40 mi
8:00 PM85 °FSunny.1 mph43%29.97 "Hg34 mi
7:00 PM89 °FSunny.1 mph31%29.96 "Hg43 mi
6:00 PM89 °FSunny.1 mph32%29.96 "Hg28 mi
5:00 PM90 °FSunny.2 mph32%29.97 "Hg19 mi
4:00 PM89 °FSunny.2 mph34%29.99 "Hg19 mi
3:00 PM89 °FPassing clouds.2 mph38%30.01 "Hg19 mi
2:00 PM85 °FPassing clouds.2 mph48%30.04 "Hg19 mi
1:00 PM83 °FPassing clouds.2 mph52%30.07 "Hg19 mi
12:00 PM82 °FPassing clouds.2 mph58%30.09 "Hg19 mi
11:00 AM79 °FPassing clouds.2 mph63%30.10 "Hg19 mi
10:00 AM76 °FPassing clouds.1 mph70%30.11 "Hg19 mi
9:00 AM73 °FPassing clouds.1 mph74%30.12 "Hg19 mi
8:00 AM69 °FPassing clouds.1 mph82%30.13 "Hg19 mi
7:00 AM67 °FPassing clouds.1 mph90%30.12 "Hg22 mi
6:00 AM68 °FClear.1 mph88%30.11 "Hg22 mi
Weather by CustomWeather, © 2015

See weather overviewHow to use our weather pages